Regional Weather Roundup
Issued by NWS Newport/Morehead, NC

Current Version | Previous Version | Text Only | Print | Product List | Glossary On
Versions: 1 2 3 4 5 6 7 8 9 10 11 12 13 14 15 16 17 18 19 20 21 22 23 24 25 26 27 28 29 30 31 32 33 34 35 36 37 38 39 40 41 42 43 44 45 46 47 48 49 50
000
ASUS42 KMHX 021225
RWRMHX
WEATHER ROUNDUP FOR EASTERN NORTH CAROLINA
NATIONAL WEATHER SERVICE NEWPORT/MOREHEAD CITY NC
800 AM EDT WED SEP 02 2015

NOTE: "FAIR" INDICATES FEW OR NO CLOUDS BELOW 12,000 FEET
WITH NO SIGNIFICANT WEATHER AND/OR OBSTRUCTIONS TO VISIBILITY

NCZ015>017-031-032-045>047-102-103-021300-
NORTH COAST

CITY           SKY/WX    TMP DP  RH WIND       PRES   REMARKS
EDENTON        SUNNY     73  71  95 CALM      30.07S
ELIZABETH CITY NOT AVBL
KITTY HAWK     SUNNY     76  75  94 CALM      30.05S
MANTEO         MOSUNNY   75  74  99 CALM      30.07R

$$

NCZ045>047-081-094-103-104-021300-
CENTRAL COAST

CITY           SKY/WX    TMP DP  RH WIND       PRES   REMARKS
FRISCO         SUNNY     79  74  84 NW6       30.06R
SWANQUARTER      N/A     77 N/A N/A N1        30.03S

$$

NCZ095-097-098-100-101-021300-
SOUTHERN COAST

CITY           SKY/WX    TMP DP  RH WIND       PRES   REMARKS
BEAUFORT       SUNNY     76  75  97 NW7       30.07R
CEDAR ISLAND     N/A     79 N/A N/A W5        30.09S
JACKSONVILLE   SUNNY     74  72  93 W3        30.07R
PINEY ISLAND   SUNNY    N/A N/A N/A NW3       30.06S HAZE
WILMINGTON     SUNNY     76  73  91 W3        30.08R


$$

NCZ011>013-027>030-043-044-078>080-089-090>093-098-021300-
COASTAL PLAIN

CITY           SKY/WX    TMP DP  RH WIND       PRES   REMARKS
AHOSKIE        SUNNY     70  69  96 CALM      30.07S
CLINTON        CLOUDY    72  72 100 CALM      30.09R FOG
ELIZABETHTOWN  SUNNY     75  74  98 CALM      30.09R
GOLDSBORO      SUNNY     73  72  94 SW2       30.07R FOG
GREENVILLE     SUNNY     72  72 100 CALM      30.08F FOG
HAVELOCK       PTSUNNY   75  73  93 W6        30.08R FOG
KENANSVILLE      N/A     73  72  98 CALM      30.09R FOG
KINSTON        SUNNY    N/A N/A N/A CALM        N/A  FOG
NEW BERN       SUNNY     75  73  93 CALM      30.08S FOG
RICHLANDS      CLOUDY    73  70  88 CALM      30.08S VSB 1/2
ROCKY MOUNT    SUNNY     72  70  93 CALM      30.08R FOG
WASHINGTON     SUNNY     73  71  94 CALM      30.07S
WHITEVILLE     SUNNY     74  73  93 CALM      30.08S

$$

AMZ130-135-150-152-154-156-158-170-250-252-270-ANZ085-086-088-633-658-670-021300-
MARINE OBSERVATIONS

STATION/POSITION TIME  TEMP    WIND        PRES    WAVE   SWELL
                       AIR SEA DIR/SP/G            HT/PER HT/PER
                 (UTC) (F)     (DEG/KT/KT) (MB)    (FT/S) (FT/S)
CHESAPEAKE LIGHT 1200   80     280/  6/  6 1018.4
64 E VA BEACH    1150   78 78  330/  4/  6 1017.3    2/ 7   2/ 7
DUCK             1200   76 78  300/  5/  5 1017.1
2 E DUCK         1111      79                N/A     1/10
OREGON INLET     1200   77 81  300/  4/  5 1017.9
13E OREGON INLT  1200      79                N/A     2/14   2/14
HATTERAS CG      1200   79 81  320/  8/  9 1017.6
DIAMOND BUOY     1150   80 83  330/  8/ 10 1017.9    2/10   2/10
CAPE LOOKOUT     1200   78     320/  6/  9 1017.8
BEAUFORT LAB     1200   77 80  350/  4/  6 1017.5
30 SE NEW RVR IN 1108   80 81  310/ 12/ 17 1018.4
30 SE NEW RVR IN 1125      81                N/A     2/ 7
27 SE WRIGHTSVLE 1200   77 81  300/ 12/ 14   N/A
5 SE WRIGHTSVLE  1108   78 82  290/ 12/ 14 1018.2
225 S CAPE HAT   1150   84 84  320/  8/ 12 1017.8    2/10   2/10
41 SE CHARLESTON 1150   81 83  340/  6/  6 1018.3    2/ 7   2/ 7

$$


USA.gov is the U.S. government's official web portal to all federal, state and local government web resources and services.